C/2010 S1 ( LINEAR )

Japanese version
Home page
Updated on July 20, 2015

---------------------------------------------------------------------

* Profile

Discovery Date September 21, 2010
Magnitude 18.4 mag
Discoverer Lincoln Laboratory Near-Earth Asteroid Research project

* Pictures

* Orbital Elements

Epoch 2013 May 28.0 TT = JDT 2456440.5
T 2013 May 20.29758 TT                                  MPCW
q   5.8999042            (2000.0)            P               Q
z  -0.0003255      Peri.  118.61456     +0.53547247     -0.22396545
 +/-0.0000001      Node    93.43035     -0.69559919     -0.66377836
e   1.0019207      Incl.  125.33578     +0.47896869     -0.71360898
From 8093 observations 2010 Sept. 21-2015 May 26, mean residual 0".5.

* Finding Charts

* Magnitudes Graph

        m1 = -2.0 + 5 log d + 15.0 log r

---------------------------------------------------------------------

The orbital elements are published on M.P.E.C. 2015-K139.
The charts are made with StellaNavigator Ver.8 (AstroArts).
The magnitudes graphs are made with Comet for Windows.

---------------------------------------------------------------------

Copyright(C) Seiichi Yoshida (comet@aerith.net). All rights reserved.